Location: Gerlach
(40.6516°N, 119.3568°W)
Time: 01:20:54
(UTC-08:00)

Transit 2A - Visible Passes

Search period start: 28 January 2023 00:00
Search period end: 07 February 2023 00:00
Orbit: 594 x 962 km, 66.7° (Epoch: 27 January)

Date Brightness Start Highest point End Pass type
(mag) Time Alt. Az. Time Alt. Az. Time Alt. Az.
28 Jan 6.1 18:27:54 10° SW 18:32:34 70° WNW 18:37:46 10° NNE visible
28 Jan 8.6 20:14:42 10° WNW 20:16:54 13° NW 20:18:16 12° NNW visible
29 Jan 5.8 17:53:25 10° SSW 17:58:05 78° ESE 18:03:16 10° NNE visible
29 Jan 8.3 19:38:47 10° W 19:42:00 17° NW 19:45:20 10° N visible
30 Jan 8.0 19:03:19 10° W 19:07:11 23° NW 19:11:22 10° N visible
31 Jan 7.5 18:28:07 10° WSW 18:32:26 32° NW 18:37:10 10° NNE visible
01 Feb 6.9 17:53:11 10° SW 17:57:46 45° NW 18:02:51 10° NNE visible
02 Feb 8.6 19:05:22 10° WNW 19:07:32 12° NW 19:09:47 10° N visible
03 Feb 8.4 18:29:25 10° W 18:32:38 17° NW 18:36:02 10° N visible
04 Feb 8.0 17:53:54 10° W 17:57:47 22° NW 18:01:59 10° N visible
